Find Iris

NORAD ID: 46278 Int'l Des: 2020-061 Owner: GHG Country: CA operational
LEOCIRCULARRETROGRADESSO

当前视图

正在加载3D地球...

关于 Iris

正在加载描述...

即将过境

Passes for default location (London). Set your location on the main map for personalized predictions.

高度历史

Loading altitude history...

两行轨道根数

1 46278U 20061G 26150.83577811 .00045366 00000-0 37614-3 0 9998
2 46278 97.2113 235.4042 0002438 110.9339 249.2185 15.70098906320758
Epoch: May 30, 2026 • Age: 10 hours

当前状态

高度 386.4 km
速度 7.68 km/s
星下点 -71.49°S, 50.37°E
发射日期 Sep 3, 2020
运行时间 5.7 years
类型 other

技术详情

分类 Payload
质量 15.00 kg
干质量 15.00 kg
总质量 15.00 kg
长度 0.40 m
直径 0.20 m
跨度 0.40 m
形状 Box
制造商 UTIAS
平台类型 Nemo-V1
阶段状态 In Orbit
所有者/国家 GHG/CA

Most Searched